User: anonymous   Login
Location: Girdwood
(60.9430°N, 149.1660°W)
Time: 08:26:29
(UTC-08:00)
Language:

Iridium 86 - Orbit

View from above orbital plane
View from above orbital plane
View from above satellite
View from above satellite

Ground track
Ground track

The orbit data is extracted from the following two-line orbital elements,

1 25528U 98066B   15143.52018294  .00000144  00000-0  44429-4 0  9992
2 25528 086.3933 305.7107 0002021 088.6879 271.4548 14.34215260871050
Epoch (UTC): 23 May 2015 12:29:03
Eccentricity: 0.0002021
inclination: 86.3933°
perigee height: 776 km
apogee height: 779 km
right ascension of ascending node: 305.7107°
argument of perigee: 88.6879°
revolutions per day: 14.34215260
mean anomaly at epoch: 271.4548°
orbit number at epoch: 87105

The dashed part of the orbit path shows where the satellite is in the earth's shadow,  

DLR